Weather History for Sanford, ME

Change the Weather History Date:

Tuesday, September 10, 2013

  Actual Average Record
Temperature  
Mean Temperature 60 °F -  
Max Temperature 71 °F 71 °F 93 °F (2002)
Min Temperature 50 °F 48 °F 33 °F (2003)
Degree Days  
Heating Degree Days 4    
Growing Degree Days 10 (Base 50)    
Moisture  
Dew Point 56 °F    
Average Humidity 80    
Maximum Humidity 94    
Minimum Humidity 67    
Precipitation  
Precipitation 0.04 in - - ()
Sea Level Pressure  
Sea Level Pressure 30.07 in    
Wind  
Wind Speed 6 mph (SW)    
Max Wind Speed 14 mph    
Max Gust Speed 17 mph    
Visibility 9 miles    
Events      
Averages and records for this station are not official NWS values.
T = Trace of Precipitation, MM = Missing Value Source: NWS Daily Summary

Daily Weather History Graph

Daily Weather History Graph

Search for Another Location

Airport:

Trip Planner

Search our weather history database for the weather conditions in past years. The results will help you decide how hot, cold, wet, or windy it might be!

Date:

Astronomy

Sep. 10, 2013 Rise Set
Actual Time 6:16 AM EDT 7:01 PM EDT
Civil Twilight 5:48 AM EDT 7:30 PM EDT
Nautical Twilight 5:13 AM EDT 8:04 PM EDT
Astronomical Twilight 4:38 AM EDT 8:40 PM EDT
Moon 11:49 AM EDT (9/10) 9:51 PM EDT (9/10)
Length of Visible Light 13h 42m
Length of Day
12h 44m
Waxing Crescent, 28% of the Moon is Illuminated
Sep 10
Waxing Crescent
Sep 12
First Quarter
Sep 19
Full
Sep 26
Last Quarter
Oct 4
New

Hourly Weather History & Observations

Time (EDT) Temp. Dew Point Humidity Pressure Visibility Wind Dir Wind Speed Gust Speed Precip Events Conditions
12:15 AM 55.4 °F 44.6 °F 67% 30.12 in 10.0 mi SW 9.2 mph - N/A   Clear
12:35 AM 55.4 °F 44.6 °F 67% 30.12 in 10.0 mi SW 8.1 mph - N/A   Clear
12:55 AM 53.6 °F 44.6 °F 72% 30.12 in 10.0 mi SSW 6.9 mph - N/A   Clear
1:15 AM 53.6 °F 44.6 °F 72% 30.12 in 10.0 mi SW 3.5 mph - N/A   Clear
1:35 AM 51.8 °F 44.6 °F 76% 30.13 in 10.0 mi Calm Calm - N/A   Clear
1:55 AM 51.8 °F 44.6 °F 76% 30.13 in 10.0 mi Calm Calm - N/A   Clear
2:15 AM 50.0 °F 44.6 °F 82% 30.13 in 10.0 mi SSW 3.5 mph - N/A   Clear
2:35 AM 51.8 °F 44.6 °F 76% 30.14 in 10.0 mi Calm Calm - N/A   Clear
2:55 AM 51.8 °F 46.4 °F 82% 30.13 in 10.0 mi SSW 4.6 mph - N/A   Clear
3:15 AM 53.6 °F 46.4 °F 77% 30.13 in 10.0 mi SW 5.8 mph - N/A   Clear
3:35 AM 53.6 °F 46.4 °F 77% 30.11 in 10.0 mi SW 6.9 mph - N/A   Clear
3:55 AM 53.6 °F 46.4 °F 77% 30.10 in 10.0 mi SW 10.4 mph - N/A   Clear
4:15 AM 53.6 °F 46.4 °F 77% 30.10 in 10.0 mi SW 10.4 mph - N/A   Clear
4:35 AM 53.6 °F 46.4 °F 77% 30.11 in 10.0 mi SW 9.2 mph - N/A   Scattered Clouds
5:15 AM 53.6 °F 46.4 °F 77% 30.11 in 10.0 mi WSW 6.9 mph - N/A   Mostly Cloudy
5:35 AM 53.6 °F 48.2 °F 82% 30.11 in 10.0 mi WSW 6.9 mph - N/A   Overcast
5:55 AM 53.6 °F 46.4 °F 77% 30.11 in 10.0 mi WSW 4.6 mph - N/A   Overcast
6:15 AM 51.8 °F 46.4 °F 82% 30.11 in 10.0 mi SW 6.9 mph - N/A   Partly Cloudy
6:35 AM 53.6 °F 48.2 °F 82% 30.10 in 10.0 mi SW 9.2 mph - N/A   Clear
6:55 AM 55.4 °F 48.2 °F 77% 30.10 in 10.0 mi SW 9.2 mph - N/A   Clear
7:15 AM 55.4 °F 48.2 °F 77% 30.11 in 10.0 mi SW 10.4 mph - N/A   Clear
7:35 AM 55.4 °F 50.0 °F 82% 30.10 in 10.0 mi SW 8.1 mph - N/A   Clear
7:55 AM 57.2 °F 50.0 °F 77% 30.09 in 10.0 mi SW 10.4 mph 16.1 mph N/A   Partly Cloudy
8:15 AM 57.2 °F 51.8 °F 82% 30.09 in 10.0 mi SW 13.8 mph 17.3 mph N/A   Clear
8:35 AM 59.0 °F 50.0 °F 72% 30.10 in 10.0 mi SW 12.7 mph - N/A   Clear
8:55 AM 60.8 °F 51.8 °F 72% 30.10 in 10.0 mi SW 11.5 mph 16.1 mph N/A   Mostly Cloudy
9:15 AM 62.6 °F 53.6 °F 72% 30.10 in 10.0 mi SW 10.4 mph - N/A   Mostly Cloudy
9:35 AM 62.6 °F 53.6 °F 72% 30.09 in 10.0 mi SW 9.2 mph 16.1 mph N/A   Scattered Clouds
9:55 AM 62.6 °F 53.6 °F 72% 30.08 in 10.0 mi SSW 8.1 mph - N/A   Partly Cloudy
10:15 AM 64.4 °F 55.4 °F 73% 30.08 in 10.0 mi SW 10.4 mph - N/A   Clear
10:35 AM 62.6 °F 55.4 °F 77% 30.08 in 10.0 mi SW 8.1 mph - N/A   Clear
10:55 AM 64.4 °F 55.4 °F 73% 30.08 in 10.0 mi SW 6.9 mph - N/A   Mostly Cloudy
11:15 AM 64.4 °F 55.4 °F 73% 30.08 in 10.0 mi SSW 5.8 mph - N/A   Overcast
11:35 AM 64.4 °F 57.2 °F 77% 30.07 in 10.0 mi SSW 4.6 mph - N/A   Overcast
11:55 AM 64.4 °F 57.2 °F 77% 30.05 in 10.0 mi South 3.5 mph - N/A   Overcast
12:15 PM 64.4 °F 59.0 °F 83% 30.06 in 10.0 mi SW 4.6 mph - N/A   Overcast
12:35 PM 64.4 °F 59.0 °F 83% 30.06 in 10.0 mi Calm Calm - N/A   Overcast
12:55 PM 64.4 °F 60.8 °F 88% 30.06 in 10.0 mi Calm Calm - 0.01 in   Overcast
1:15 PM 64.4 °F 60.8 °F 88% 30.06 in 5.0 mi SSW 3.5 mph - 0.03 in   Overcast
1:35 PM 64.4 °F 60.8 °F 88% 30.05 in 7.0 mi South 3.5 mph - 0.03 in   Overcast
1:55 PM 66.2 °F 62.6 °F 88% 30.03 in 10.0 mi SW 5.8 mph - 0.03 in   Overcast
2:15 PM 68.0 °F 62.6 °F 83% 30.03 in 10.0 mi SW 6.9 mph - N/A   Overcast
2:35 PM 68.0 °F 62.6 °F 83% 30.03 in 10.0 mi SW 6.9 mph - N/A   Overcast
2:55 PM 69.8 °F 64.4 °F 83% 30.02 in 10.0 mi SW 6.9 mph - N/A   Overcast
3:15 PM 69.8 °F 62.6 °F 78% 30.02 in 10.0 mi SW 6.9 mph - N/A   Overcast
3:35 PM 69.8 °F 64.4 °F 83% 30.02 in 10.0 mi SSW 3.5 mph - N/A   Overcast
3:55 PM 69.8 °F 64.4 °F 83% 30.03 in 10.0 mi SW 6.9 mph - N/A   Overcast
4:15 PM 69.8 °F 62.6 °F 78% 30.02 in 10.0 mi SSW 5.8 mph - N/A   Overcast
4:35 PM 69.8 °F 64.4 °F 83% 30.03 in 10.0 mi Calm Calm - N/A   Overcast
4:55 PM 71.6 °F 64.4 °F 78% 30.03 in 10.0 mi SW 5.8 mph - N/A   Overcast
5:15 PM 71.6 °F 64.4 °F 78% 30.03 in 10.0 mi SSW 5.8 mph - N/A   Overcast
5:35 PM 71.6 °F 64.4 °F 78% 30.03 in 10.0 mi SW 5.8 mph - N/A   Mostly Cloudy
5:55 PM 71.6 °F 64.4 °F 78% 30.03 in 10.0 mi SW 9.2 mph - N/A   Partly Cloudy
6:15 PM 69.8 °F 64.4 °F 83% 30.03 in 10.0 mi SW 5.8 mph - N/A   Clear
6:35 PM 69.8 °F 64.4 °F 83% 30.03 in 10.0 mi SSW 3.5 mph - N/A   Clear
6:55 PM 69.8 °F 64.4 °F 83% 30.03 in 10.0 mi Calm Calm - N/A   Scattered Clouds
7:15 PM 69.8 °F 64.4 °F 83% 30.04 in 10.0 mi Calm Calm - N/A   Overcast
7:35 PM 69.8 °F 64.4 °F 83% 30.05 in 10.0 mi SSW 3.5 mph - N/A   Overcast
7:55 PM 69.8 °F 64.4 °F 83% 30.05 in 10.0 mi SSW 3.5 mph - N/A   Overcast
8:15 PM 69.8 °F 64.4 °F 83% 30.06 in 10.0 mi Calm Calm - N/A   Overcast
8:35 PM 68.0 °F 64.4 °F 88% 30.06 in 10.0 mi Calm Calm - N/A   Overcast
8:55 PM 68.0 °F 64.4 °F 88% 30.06 in 10.0 mi Calm Calm - N/A   Overcast
9:15 PM 68.0 °F 64.4 °F 88% 30.06 in 9.0 mi Calm Calm - N/A   Overcast
9:35 PM 66.2 °F 64.4 °F 94% 30.06 in 5.0 mi Calm Calm - N/A   Scattered Clouds
9:55 PM 66.2 °F 62.6 °F 88% 30.06 in 3.0 mi NE 5.8 mph - N/A   Mostly Cloudy
10:15 PM 66.2 °F 62.6 °F 88% 30.06 in 5.0 mi Calm Calm - N/A   Overcast
10:35 PM 66.2 °F 62.6 °F 88% 30.06 in 4.0 mi Calm Calm - N/A   Overcast
10:55 PM 66.2 °F 62.6 °F 88% 30.05 in 3.0 mi Calm Calm - N/A   Overcast
11:16 PM 66.2 °F 62.6 °F 88% 30.05 in 5.0 mi Calm Calm - N/A   Overcast
11:35 PM 66.2 °F 62.6 °F 88% 30.05 in 4.0 mi Calm Calm - N/A   Overcast
11:55 PM 66.2 °F 62.6 °F 88% 30.05 in 5.0 mi Calm Calm - N/A   Overcast